Terminal Aerodrome Forecast
Issued by NWS

Home | Current Version | Previous Version | Graphics & Text | Print | Product List | Glossary On
Versions: 1 2 3 4 5 6 7 8 9 10 11 12 13 14 15 16 17 18 19 20 21 22 23
000
FTUS42 KMHX 301100
TAFOAJ
TAF
KOAJ 301120Z 3012/0112 01003KT 3SM BR SCT003
      TEMPO 3012/3013 2SM BR
     FM301300 02005KT P6SM SCT050 BKN100
     FM301800 03005KT P6SM SCT050
     FM010800 35002KT 3SM BR SCT008
      AMD LTD TO CLD VIS AND WIND=

USA.gov is the U.S. government's official web portal to all federal, state and local government web resources and services.